CZ-6A R/B, 54236

Orbit data source: Space-Track

CZ-6A R/B, 54236 is space debris in SSO originally from a launch on Fri, 11 Nov 2022 UTC launched from the Taiyaun Space Center, China (TSC). Debris objects in space refer to the collection of defunct objects orbiting the Earth. Examples of debris include non-operational satellites, rocket bodies, and fragments generated from explosions, collisions, or faulty payload assembly.

Loading next visibility...
Identifier
54236, 2022-151B
Orbit
SSO
Country
Flag of CNCN / PRC
Related business
Manufacturer
SAST
Mission
Spacecraft
Bus & Motor
CZ-6A STAGE 2, YF-115
Mass
~6,000 kg wet, ~6,000 kg dry
Launch date (UTC)
2022-11-11 (4 years ago)
Launch vehicle
Unknown
Launch site
Taiyaun Space Center, China (TSC)
Object type
Payload
Rocket body
Debris
Shape & HBR
Unknown shape, 5.5 m
Radar Cross Section
Large (>1 m²)

Expand to show TLE details & history
Last TLE update: 2 days ago

TLE from 2 days ago
0 CZ-6A R/B
1 54236U 22151B   26171.39122988 -.00000069  00000-0 -14476-4 0  9993
2 54236  98.8506 172.3634 0044866 335.4887  24.4150 14.09303111185092
Epoch: 2026-06-20T09:23Z
TLE epoch observation values (Epoch: 2026-06-20T09:23:22.261Z)
Latitude
-0.00003°
Longitude
122.91412°
Altitude
835.094 km
Speed
7.45 km/s
True Right ascension
11h 29m 27s
True Declination
0° 00' 00"
Sunlit
Object was in daylight at epoch
Visualization orbit readout
Latitude
Unknown
Longitude
Unknown
Altitude
Unknown
Speed
Unknown
Apparent Right ascension
Unknown
Apparent Declination
Unknown
Sunlit
N/A
Visualization observer readout
Local Sidereal Time
21:40:43
Azimuth
Unknown
Elevation
Unknown
Doppler factor
Unknown
Orbital elements
Apogee altitude
891.407 km
Perigee altitude
826.467 km
Semi-major axis
7,237.074 km
Eccentricity
0.00449
Inclination
98.8506°
RAAN
172.3634°
Arg. of periapsis
335.4887°
True anomaly
24.6286°
Mean anomaly
24.415°
Eccentric anomaly
24.52169°
Mean motion
3.52532 °/min
Orbital period
102.12 mins
BSTAR
-0.000014476
Loading maneuver chart data...
Computing Atmospheric mass density...
Loading historical data...
Loading historical data...
Loading historical data...
Loading historical data...
Loading historical data...
Loading historical data...
Loading historical data...

Documentation

Showing up to 5 results
|